Location: Unspecified
(50.7693°N, 0.0000°E)
Time: 04:21:06
(UTC+00:00)

SR - Pass Details

Date: 30 June 2019
Orbit: 578 x 878 km, 66.7° (Epoch: 21 August)

Event Time Altitude Azimuth Distance (km) Brightness Sun altitude
Rises 01:37:36 0° 198° (SSW) 2,781 - -13.2°
Reaches altitude 10° 01:39:52 10° 191° (SSW) 1,889 - -13.0°
Exits shadow 01:41:10 19° 184° (S) 1,406 ? -13.0°
Maximum altitude 01:43:52 45° 119° (ESE) 811 ? -12.8°
Drops below altitude 10° 01:48:03 10° 47° (NE) 1,969 ? -12.5°
Sets 01:50:26 0° 41° (NE) 2,914 ? -12.4°
